SL-8 DEB *

Satellite information

Favourite Embed

Satellite Type and Status

DEBRISIN ORBIT

Key statistics

Satellite SL-8 DEB * at a glance.

Uptime

17311

Days in orbit

Revolutions

≈ 15.0

Per day

Orbit

LEO

Low Earth Orbit

Inclination

74.0

Latest

Satellite identification and parameters

Extended collection of information and parameters for SL-8 DEB *.

Object identification

Identified? True

Debris? True

Object name: SL-8 DEB *

International designator: 1977-119E

Object number (NORAD): 18512

Object ID (CCSDS): 18512

Country: COMMONWEALTH OF INDEPENDENT STATES (CIS)

Current information (Y/N): Y

RCS size: SMALL

Orbital parameters

Period: 96.318 minutes

Inclination: 74.0238 deg

SMA: 6960.371 km

Apoapsis: 584.521 km

Periapsis: 579.95 km

RAAN: 297.0371 deg

Eccentricy: 0.0003284

Argument of periapsis: 203.1143 deg

Mean anomaly: 228.305 deg

Mean motion: 14.95044863 rev/day

Mean motion (dot): 0.00010442 rev/day2

B* drag term: 0.00095566 1/REarth

Two-line elements (TLE)

Creation date: May 8, 2025, 10:36 p.m.

Reference frame: TEME

Reference center: EARTH

Epoch: May 8, 2025, 1:52 p.m. UTC

TLE line 0: 0 SL-8 DEB *

TLE line 1: 1 18512U 77119E 25128.57846382 .00010442 00000-0 95566-3 0 9998

TLE line 2: 2 18512 74.0238 297.0371 0003284 203.1143 228.3050 14.95044863148156

Live tracking on map

Real-time ground track for satellite SL-8 DEB *.

In-orbit conjunctions

A list of the most updated potential collisions computed for object SL-8 DEB *.

Target Orbit TCA Probability of collision Miss distance Type
YAOGAN 1 SSO 2024-08-31 01:07:30 0.002983746 56.0 (m) PAYLOAD

Associated space launch

Military communications satellite

SL-8 DEB * was lifted into orbit during the mission ‘Kosmos-3M | Strela-2M 16’, on board a Kosmos-3M space rocket.

The launch took place on Dec. 16, 1977, 4:25 a.m. from 132/1 (132L).

For more information about the launch, click the button.

Launch to space Kosmos-3M | Strela-2M 16
Kosmos-3M | Strela-2M 16

Agency: N/A

Status: Launch Successful

Launch date: Dec. 16, 1977, 4:25 a.m. UTC

Rocket: Kosmos-3M

Launch pad: 132/1 (132L)

Location: Plesetsk Cosmodrome, Russian Federation

...

Latest news about this satellite

There are no fresh news available about this satellite. Check back as we update our databases every day.


Newsletter sign-up

Weekly statistics, charts and insights to help you stay on top of the space industry.